This demonstration page uses our WeatherBlox Daily Observations layout. Learn more.

Left ArrowRight Arrow

Hourly Observations for April 10, 2021

Temp ( °F °C ) Dew Point ( °F °C ) Humidity (%) Winds ( mph kmh ) Pressure ( in mb ) Visibility ( mi km ) Precip ( " mm )
12:15 am 00:15 Cloudy with Mist and Fog 46 8 46 8 100 100 ENE 5 7 30.08 1019 3 4.82802 0 0
12:35 am 00:35 Cloudy with Mist and Fog 46 8 46 8 100 100 ENE 3 6 30.08 1019 2 3.21868 0 0
12:55 am 00:55 Cloudy with Mist and Fog 46 8 46 8 100 100 NE 3 6 30.08 1019 2 3.21868 0 0
1:15 am 01:15 Cloudy with Mist and Fog 46 8 46 8 100 100 NE 6 9 30.07 1018 1.75 2.816345 0 0
1:35 am 01:35 Cloudy with Mist and Fog 46 8 46 8 100 100 ENE 5 7 30.07 1018 1.5 2.41401 0 0
1:55 am 01:55 Cloudy with Nearby Thunderstorms 46 8 46 8 100 100 ENE 5 7 30.06 1018 2 3.21868 0 0
2:15 am 02:15 Cloudy with Mist and Fog 46 8 46 8 100 100 ENE 5 7 30.06 1018 1.5 2.41401 0 0
2:35 am 02:35 Cloudy with Mist and Fog 45 7 45 7 100 100 Calm 30.06 1018 1.5 2.41401 0 0
2:55 am 02:55 Cloudy with Mist and Fog 45 7 45 7 100 100 ENE 3 6 30.06 1018 1.5 2.41401 0 0
3:15 am 03:15 Cloudy with Mist and Fog 45 7 45 7 100 100 ENE 7 11 30.04 1017 2 3.21868 0 0
3:35 am 03:35 Cloudy with Mist and Fog 45 7 45 7 100 100 ENE 3 6 30.03 1017 1.75 2.816345 0 0
3:55 am 03:55 Cloudy with Mist and Fog 45 7 45 7 100 100 ENE 7 11 30.02 1017 1.5 2.41401 0 0
4:15 am 04:15 Cloudy with Mist and Fog 45 7 45 7 100 100 ENE 8 13 30.03 1017 1.25 2.011675 0 0
4:35 am 04:35 Cloudy with Mist and Fog 45 7 45 7 100 100 NE 7 11 30.02 1017 1.5 2.41401 0 0
4:55 am 04:55 Cloudy with Mist and Fog 45 7 45 7 100 100 NE 7 11 30.03 1017 1.5 2.41401 0 0
5:15 am 05:15 Cloudy with Mist and Fog 45 7 45 7 100 100 NE 5 7 30.03 1017 1.25 2.011675 0 0
5:35 am 05:35 Cloudy with Mist and Fog 45 7 45 7 100 100 ENE 6 9 30.03 1017 1.75 2.816345 0 0
5:55 am 05:55 Cloudy with Mist and Fog 45 7 45 7 100 100 NE 5 7 30.03 1017 1.5 2.41401 0 0
6:15 am 06:15 Cloudy with Mist and Fog 45 7 45 7 100 100 NE 5 7 30.02 1017 1.25 2.011675 0 0
6:35 am 06:35 Cloudy with Mist and Fog 45 7 45 7 100 100 NE 3 6 30.03 1017 1.25 2.011675 0 0
6:55 am 06:55 Cloudy with Mist and Fog 45 7 45 7 100 100 NE 5 7 30.03 1017 1 1.60934 0 0
7:15 am 07:15 Cloudy with Mist and Fog 45 7 45 7 100 100 ENE 5 7 30.04 1017 0.75 1.207005 0 0
7:35 am 07:35 Cloudy with Mist and Fog 45 7 45 7 100 100 ENE 7 11 30.03 1017 0.75 1.207005 0 0
7:55 am 07:55 Cloudy with Mist and Fog 45 7 45 7 100 100 E 6 9 30.03 1017 1 1.60934 0 0
8:15 am 08:15 Cloudy with Mist and Fog 45 7 45 7 100 100 E 7 11 30.03 1017 1.25 2.011675 0 0
8:35 am 08:35 Cloudy with Mist and Fog 45 7 45 7 100 100 E 7 11 30.02 1017 1.5 2.41401 0 0
8:55 am 08:55 Cloudy with Mist and Fog 45 7 45 7 100 100 E 6 9 30.02 1017 1.5 2.41401 0 0
9:15 am 09:15 Cloudy with Mist and Fog 45 7 45 7 100 100 Calm 30.01 1016 1.75 2.816345 0 0
9:35 am 09:35 Cloudy with Mist and Fog 45 7 45 7 100 100 SSE 3 6 30.02 1017 1.75 2.816345 0 0
9:55 am 09:55 Cloudy with Mist and Fog 45 7 45 7 100 100 Calm 30.03 1017 1 1.60934 0 0
10:15 am 10:15 Cloudy with Mist and Fog 45 7 45 7 100 100 SSE 6 9 30.03 1017 1 1.60934 0 0
10:35 am 10:35 Cloudy with Mist and Fog 46 8 46 8 100 100 S 3 6 30.03 1017 1.25 2.011675 0 0
10:55 am 10:55 Cloudy with Mist and Fog 46 8 46 8 100 100 SSE 3 6 30.03 1017 1.75 2.816345 0.01 0.254
11:15 am 11:15 Cloudy with Mist and Fog 46 8 46 8 100 100 SSE 6 9 30.03 1017 4 6.43736 0 0
11:35 am 11:35 Cloudy with Light Rain 46 8 46 8 100 100 ESE 9 15 30.02 1017 2 3.21868 0 0
11:55 am 11:55 Cloudy 48 9 48 9 100 100 SE 5 7 30.01 1016 10 16.0934 0 0
12:15 pm 12:15 Cloudy 48 9 48 9 100 100 SSW 7 11 30.01 1016 7 11.26538 0 0
12:35 pm 12:35 Cloudy 50 10 50 10 100 100 S 7 11 29.99 1015 10 16.0934 0 0
12:55 pm 12:55 Cloudy 50 10 50 10 100 100 S 7 11 29.98 1015 10 16.0934 0 0
1:15 pm 13:15 Cloudy 52 11 50 10 94 94 S 8 13 29.96 1015 10 16.0934 0 0
1:35 pm 13:35 Cloudy 54 12 50 10 88 88 S 7 11 29.95 1014 10 16.0934 0 0
1:55 pm 13:55 Cloudy 54 12 50 10 88 88 SSW 8 13 29.95 1014 10 16.0934 0 0
2:15 pm 14:15 Cloudy 55 13 50 10 82 82 S 8 13 29.94 1014 10 16.0934 0 0
2:35 pm 14:35 Cloudy 55 13 50 10 82 82 S 6 9 29.92 1013 10 16.0934 0 0
2:55 pm 14:55 Cloudy 55 13 52 11 88 88 S 6 9 29.92 1013 10 16.0934 0 0
3:15 pm 15:15 Cloudy 57 14 52 11 82 82 SSW 5 7 29.91 1013 10 16.0934 0 0
3:35 pm 15:35 Cloudy 59 15 52 11 77 77 S 9 15 29.9 1012 10 16.0934 0 0
3:55 pm 15:55 Cloudy 59 15 52 11 77 77 S 7 11 29.89 1012 10 16.0934 0 0
4:15 pm 16:15 Cloudy 59 15 52 11 77 77 S 7 11 29.87 1011 10 16.0934 0 0
4:35 pm 16:35 Mostly Cloudy 61 16 52 11 72 72 S 9 15 29.87 1011 10 16.0934 0 0
4:55 pm 16:55 Partly Cloudy 61 16 52 11 72 72 S 8 13 29.86 1011 10 16.0934 0 0
5:15 pm 17:15 Sunny 61 16 52 11 72 72 S 7 11 29.85 1011 10 16.0934 0 0
5:35 pm 17:35 Sunny 61 16 54 12 77 77 SSW 3 6 29.83 1010 10 16.0934 0 0
5:55 pm 17:55 Sunny 63 17 54 12 73 73 SSW 5 7 29.83 1010 10 16.0934 0 0
6:15 pm 18:15 Sunny 61 16 54 12 77 77 Calm 29.82 1010 10 16.0934 0 0
6:35 pm 18:35 Sunny 61 16 54 12 77 77 Calm 29.8 1009 10 16.0934 0 0
6:55 pm 18:55 Sunny 61 16 54 12 77 77 ENE 3 6 29.79 1009 10 16.0934 0 0
7:15 pm 19:15 Sunny 61 16 54 12 77 77 ENE 3 6 29.78 1008 10 16.0934 0 0
7:35 pm 19:35 Sunny 61 16 54 12 77 77 NE 3 6 29.77 1008 10 16.0934 0 0
7:55 pm 19:55 Clear 59 15 54 12 82 82 Calm 29.77 1008 10 16.0934 0 0
8:15 pm 20:15 Clear 59 15 54 12 82 82 NE 5 7 29.77 1008 10 16.0934 0 0
8:35 pm 20:35 Clear 59 15 54 12 82 82 NE 3 6 29.76 1008 10 16.0934 0 0
8:55 pm 20:55 Clear 59 15 54 12 82 82 E 6 9 29.76 1008 10 16.0934 0 0
9:15 pm 21:15 Clear 59 15 54 12 82 82 E 3 6 29.76 1008 10 16.0934 0 0
9:35 pm 21:35 Partly Cloudy 59 15 54 12 82 82 ESE 6 9 29.76 1008 10 16.0934 0 0
9:55 pm 21:55 Mostly Cloudy 59 15 54 12 82 82 ESE 5 7 29.76 1008 10 16.0934 0 0
10:15 pm 22:15 Cloudy 59 15 54 12 82 82 Calm 29.75 1007 10 16.0934 0 0
10:35 pm 22:35 Cloudy with Light Rain 59 15 54 12 82 82 E 5 7 29.74 1007 10 16.0934 0 0
10:55 pm 22:55 Cloudy with Drizzle 57 14 54 12 88 88 E 5 7 29.73 1007 10 16.0934 0 0
11:15 pm 23:15 Cloudy with Light Rain 55 13 54 12 94 94 E 3 6 29.72 1006 7 11.26538 0 0
11:35 pm 23:35 Cloudy with Light Rain 55 13 54 12 94 94 ESE 3 6 29.73 1007 10 16.0934 0.01 0.254
11:55 pm 23:55 Cloudy with Heavy Rain 55 13 54 12 94 94 SE 7 11 29.72 1006 3 4.82802 0.08 2.032

Powered by AerisWeather